Regional Weather Roundup
Issued by NWS

Home | Current Version | Previous Version | Graphics & Text | Print | Product List | Glossary On
Versions: 1 2 3 4 5 6 7 8 9 10 11 12 13 14 15 16 17 18 19 20 21 22 23 24 25 26 27 28 29 30 31 32 33 34 35 36 37 38 39 40 41 42 43 44 45 46 47 48 49 50
544
ASUS44 KMEG 230000
RWRTN
TENNESSEE HOURLY STATE WEATHER ROUNDUP
NATIONAL WEATHER SERVICE MEMPHIS TN
700 PM CDT SUN APR 22 2018

TNZ002-004-019-021-049-052-054-088>092-230100-
WEST TENNESSEE

CITY           SKY/WX    TMP DP  RH WIND       PRES   REMARKS
MEMPHIS INTL   MOCLDY    65  59  81 E10       29.83S
NWS MEMPHIS      N/A     63 N/A N/A MISG        N/A
JACKSON        LGT RAIN  61  60  97 E8        29.87F
DYERSBURG      LGT RAIN  59  58  96 NE7       29.88F
$$

TNZ008-025-027-028-033-062-065-066-230100-
NORTH MIDDLE TENNESSEE

CITY           SKY/WX    TMP DP  RH WIND       PRES   REMARKS
NASHVILLE      LGT RAIN  59  56  89 E12       29.97F
CLARKSVILLE    LGT RAIN  58  54  86 E13       29.97F
SMYRNA         LGT RAIN  59  56  89 E9        29.98F
CROSSVILLE     LGT RAIN  55  52  89 SE8G16    30.08F
$$

TNZ061-075-076-078-094-096-097-230100-
SOUTH MIDDLE TENNESSEE

CITY           SKY/WX    TMP DP  RH WIND       PRES   REMARKS
$$

TNZ017-018-042-046-047-230100-
NORTHEAST TENNESSEE

CITY           SKY/WX    TMP DP  RH WIND       PRES   REMARKS
TRI CITIES     CLOUDY    61  47  59 E8        30.19S
$$

TNZ012-013-036-069-073-074-230100-
CENTRAL EAST TENNESSEE

CITY           SKY/WX    TMP DP  RH WIND       PRES   REMARKS
KNOXVILLE      LGT RAIN  63  52  67 E6        30.08F
OAK RIDGE      LGT RAIN  61  57  87 CALM      30.10F
$$

TNZ083-085-099-230100-
SOUTHEAST TENNESSEE

CITY           SKY/WX    TMP DP  RH WIND       PRES   REMARKS
CHATTANOOGA    LGT RAIN  58  56  93 NE7       30.02F FOG
$$

SKY/WX REPORTED AS FAIR MEANS FEW OR NO CLOUDS BELOW
12 THOUSAND FEET.





USA.gov is the U.S. government's official web portal to all federal, state and local government web resources and services.